Terminal Aerodrome Forecast
Issued by NWS Boise, ID

Home | Current Version | Previous Version | Text Only | Print | Product List | Glossary On
Versions: 1 2 3 4 5 6 7 8 9 10 11 12 13 14 15 16 17 18 19 20 21 22 23 24 25 26 27 28 29 30 31 32 33
000
FTUS45 KBOI 252333
TAFBOI
TAF
KBOI 252333Z 2600/2624 VRB05KT P6SM VCTS BKN080CB
      TEMPO 2600/2602 VRB15G25KT
     FM260200 VRB05KT P6SM BKN100=

USA.gov is the U.S. government's official web portal to all federal, state and local government web resources and services.